Home > Weather > Linz > Past weeks

Flag for Austria Weather for the Past 2 Weeks in Linz, Upper Austria, Austria

Now
30 °F

Ice fog.


Feels Like: 27 °F
Forecast: 30 / 54 °F
Wind: 3 mph from West

Location: Linz / Hoersching-Flughafen

Current Time: Feb 6, 2016 at 10:34:00 AM

Latest Report: Feb 6, 2016 at 9:50 AM


Visibility: 0 mi

Pressure: 30.21 "Hg

Humidity: 100%

Dew point: 30 °F

Location of LinzLocation

Historic Weather in Linz — Graph

°F

Linz Temperature Yesterday

Maximum temperature yesterday: 41 °F (at 12:20 PM)
Minimum temperature yesterday: 34 °F (at 11:50 PM)
Average temperature yesterday: 38 °F

High & Low Weather Summary for the Past Weeks

 TemperatureHumidityPressure
High55 °F (Jan 28, 2:20 PM)100% (Jan 23, 1:20 AM)30.60 "Hg (Jan 23, 1:20 AM)
Low9 °F (Jan 23, 1:20 AM)55% (Jan 28, 2:20 PM)29.86 "Hg (Jan 31, 1:20 AM)
Average37 °F89%30.27 "Hg
* Reported Jan 22 9:20 AM — Feb 6 9:20 AM, Linz, Weather by CustomWeather, © 2016

Note: Actual official high and low records may vary slightly from our data, if they occured in-between our weather recording intervals... More about our weather records

Advertising

Linz Weather History for the Previous 24 Hours

 ConditionsComfort  
Time TempWeatherWind HumidityBarometerVisibility
9:20 AM
Sat, Feb 6
30 °FIce fog.2 mph100%30.21 "Hg0 mi
8:50 AM28 °FIce fog.2 mph100%30.24 "Hg0 mi
8:20 AM28 °FIce fog.2 mph100%30.24 "Hg0 mi
7:50 AM28 °FIce fog.2 mph100%30.24 "Hg0 mi
7:20 AM27 °FIce fog.2 mph100%30.21 "Hg0 mi
6:50 AM28 °FIce fog.2 mph100%30.21 "Hg0 mi
6:20 AM28 °FIce fog.2 mph100%30.21 "Hg0 mi
5:50 AM30 °FIce fog.1 mph93%30.21 "Hg1 mi
4:50 AM30 °FSleet. Overcast.1 mph100%30.24 "Hg1 mi
4:20 AM32 °FChilly.2 mph100%30.24 "Hg2 mi
3:50 AM32 °FIce fog.2 mph93%30.24 "Hg2 mi
3:20 AM32 °FIce fog.3 mph93%30.27 "Hg2 mi
2:50 AM32 °FIce fog.1 mph100%30.27 "Hg1 mi
2:20 AM32 °FIce fog.No wind100%30.27 "Hg2 mi
1:20 AM34 °FChilly.5 mph93%30.30 "Hg4 mi
12:50 AM34 °FChilly.6 mph100%30.30 "Hg4 mi
12:20 AM34 °FPassing clouds.6 mph100%30.30 "Hg5 mi
11:50 PM
Fri, Feb 5
34 °FPassing clouds.5 mph93%30.30 "Hg6 mi
11:20 PM36 °FPassing clouds.5 mph93%30.33 "Hg6 mi
10:50 PM36 °FPassing clouds.3 mph93%30.33 "Hg5 mi
10:20 PM36 °FPassing clouds.2 mph93%30.33 "Hg5 mi
9:50 PM36 °FPartly cloudy.2 mph93%30.33 "HgN/A
9:20 PM37 °FPartly cloudy.2 mph87%30.33 "HgN/A
8:50 PM37 °FPartly cloudy.1 mph87%30.33 "HgN/A
8:20 PM39 °FPartly cloudy.2 mph81%30.36 "HgN/A
7:50 PM39 °FPartly cloudy.1 mph81%30.36 "HgN/A
7:20 PM39 °FPartly cloudy.3 mph81%30.36 "HgN/A
6:50 PM39 °FPartly cloudy.1 mph81%30.36 "HgN/A
6:20 PM39 °FPassing clouds.No wind81%30.36 "HgN/A
5:50 PM39 °FPassing clouds.2 mph81%30.36 "HgN/A
5:20 PM39 °FPassing clouds.3 mph81%30.33 "HgN/A
4:50 PM39 °FPartly sunny.7 mph81%30.33 "HgN/A
4:20 PM41 °FPartly sunny.8 mph76%30.33 "HgN/A
3:50 PM41 °FPartly sunny.8 mph76%30.33 "HgN/A
3:20 PM41 °FBroken clouds.10 mph70%30.36 "HgN/A
2:50 PM41 °FBroken clouds.10 mph70%30.36 "HgN/A
2:20 PM41 °FBroken clouds.10 mph66%30.36 "HgN/A
1:50 PM41 °FPartly sunny.10 mph66%30.36 "HgN/A
1:20 PM41 °FPartly sunny.10 mph61%30.36 "HgN/A
12:50 PM39 °FPartly sunny.9 mph70%30.36 "HgN/A
12:20 PM41 °FBroken clouds.10 mph66%30.39 "HgN/A
11:50 AM39 °FBroken clouds.12 mph70%30.39 "HgN/A
11:20 AM39 °FScattered clouds.12 mph70%30.39 "HgN/A
10:50 AM39 °FScattered clouds.10 mph75%30.39 "HgN/A
10:20 AM39 °FScattered clouds.14 mph75%30.39 "HgN/A
Weather by CustomWeather, © 2016

See weather overviewHow to use our weather pages